[[{"header":{"parameterUnit":"m.s-1","parameterCategory":1,"la1":30.2991,"la2":30.254,"lo1":-89.0895,"lo2":-89.0444,"dy":0.0017,"dx":0.0017,"nx":28,"ny":28,"refTime":"2023-08-10T09:00:00:Z","depth":0,"parameterNumber":2,"parameterNumberName":"U-component_of_WINDS"},"data":[0,0,0,0,0,0,0,0,0,0,0,0,0,0,0,0,0,0,0,0,0,0,0,0,0,0,0,0,0,0,0,0,0,0,0,0,0,0,0,0,0,0,0,0,0,0,0,0,0,0,0,0,0,0,0,0,0,0,5.4408,5.441,0,5.4578,5.458,5.4582,5.4519,5.4515,5.4511,5.4507,5.4682,5.469,5.4698,0,0,0,0,0,0,0,0,0,0,0,0,0,5.4029,5.4036,5.4408,5.441,5.4412,5.4577,5.458,5.4582,5.4519,5.4515,5.451,5.4506,5.4679,5.4689,5.4699,0,0,0,0,0,0,0,0,0,0,0,0,0,5.4196,5.4039,5.4408,5.4401,5.4402,5.4577,5.458,5.4583,5.452,5.4515,5.4509,5.4503,5.4676,5.4688,5.47,5.4893,0,0,5.4738,5.4743,0,0,0,0,0,0,0,0,5.4186,5.421,5.44,5.4402,5.4403,5.4521,5.451,5.4687,5.4522,5.4475,5.4507,5.4501,5.4633,5.4649,5.4693,5.4901,5.4908,5.4739,5.4747,5.4752,5.4756,0,0,0,0,0,0,0,5.4175,5.4202,5.4475,5.4402,5.4405,5.4389,5.4406,5.4543,5.4585,5.4479,5.4475,5.4496,5.4633,5.4682,5.4697,5.4911,5.4739,5.475,5.4757,5.4762,5.5283,5.5289,0,0,0,0,0,0,5.4163,5.4193,5.447,5.448,5.4278,5.4401,5.442,5.4489,5.4583,5.4592,5.4501,5.4492,5.4663,5.4683,5.4703,5.4933,5.4752,5.4764,5.4771,5.5276,5.5284,5.5291,0,0,0,0,0,0,5.4155,5.4188,5.4463,5.4336,5.4369,5.4413,5.4491,5.4496,5.4544,5.4599,5.4606,5.4543,5.4659,5.4685,5.4845,5.4938,5.4769,5.478,5.5269,5.5279,5.5287,5.5395,0,0,0,0,0,0,5.4144,5.4185,5.4259,5.4338,5.4376,5.4603,5.4497,5.4503,5.4565,5.4556,5.4641,5.4649,5.4657,5.4827,5.4858,5.4952,5.479,5.5261,5.5273,5.5284,5.5383,5.5407,5.5427,0,0,0,0,0,5.4131,5.4283,5.4263,5.4297,5.4469,5.4608,5.4631,5.4636,5.4573,5.4647,5.4683,5.4646,5.4923,5.4844,5.4878,5.4977,5.5255,5.527,5.5284,5.5373,5.5402,5.5427,0,0,0,0,0,0,5.4215,5.4293,5.4272,5.4454,5.4525,5.4597,5.4691,5.4667,5.4757,5.4745,5.4749,5.4768,5.4933,5.4971,5.4882,5.5167,5.5079,5.5101,5.5136,5.5164,5.5186,5.5172,5.48,0,0,0,0,0,5.4255,5.4361,5.4424,5.4579,5.4615,5.4647,5.4708,5.4706,5.478,5.481,5.4857,5.493,5.5033,5.5101,5.5199,5.5389,5.5405,5.5474,5.5495,5.5513,5.5532,5.5633,5.5664,5.5338,5.5338,5.5338,0,0,5.4338,5.4394,5.4461,5.4597,5.4651,5.4761,5.4673,5.4793,5.4874,5.4828,5.4981,5.5019,5.51,5.5275,5.5355,5.5312,5.5626,5.5532,5.5545,5.5554,5.5651,5.5682,5.5709,5.5348,5.5346,5.5345,0,0,5.4545,5.4599,5.4733,5.4789,5.4873,5.4893,5.4925,5.5001,5.5024,5.5178,5.5145,5.5242,5.542,5.5479,5.5532,5.5761,5.573,5.5793,5.5907,5.6006,5.6032,5.6054,5.6135,5.6163,5.5811,5.5811,5.5812,0,5.4638,5.4802,5.4805,5.4928,5.4988,5.495,5.5085,5.514,5.5252,5.5294,5.5245,5.5466,5.5519,5.5706,5.5762,5.5807,5.5843,5.5782,5.6028,5.6051,5.6072,5.6148,5.6179,5.5818,5.5817,5.5817,5.5816,0,5.4911,5.5026,5.5124,5.5232,5.5303,5.5432,5.5453,5.5525,5.5517,5.5543,5.5699,5.5761,5.587,5.5914,5.5908,5.6101,5.6072,5.6026,5.5937,5.611,5.6181,5.6211,5.5828,5.5826,5.5824,5.5822,0,0,5.5177,5.5284,5.532,5.5367,5.5456,5.5544,5.5671,5.5777,5.5838,5.5916,5.6021,5.6172,5.613,5.619,5.619,5.6277,5.6452,5.622,5.6222,5.626,5.6667,5.67,5.6734,5.6433,5.6439,5.6443,5.666,0,5.539,5.5611,5.5617,5.582,5.5924,5.589,5.5999,5.6066,5.6093,5.6185,5.6215,5.6321,5.6258,5.6294,5.6378,5.6413,5.6534,5.6398,5.653,5.6535,5.6509,5.6772,5.6808,5.7009,5.6688,5.6693,5.6696,0,5.5669,5.5754,5.5967,5.6039,5.6084,5.6182,5.6279,5.6368,5.6443,5.6456,5.6523,5.651,5.6638,5.6546,5.6722,5.663,5.6684,5.6709,5.6717,5.6729,5.6625,5.6789,5.7074,5.7103,5.6741,5.6737,5.6734,0,5.5839,5.6008,5.6156,5.6199,5.6287,5.6357,5.6397,5.6466,5.6528,5.6613,5.6654,5.6753,5.6807,5.6884,5.6898,5.683,5.7074,5.6984,5.7088,5.7088,5.714,5.7136,5.7436,5.7178,5.7178,5.7177,5.7176,0,5.6076,5.6207,5.6234,5.6325,5.6471,5.6476,5.662,5.6655,5.6716,5.6813,5.6789,5.6881,5.6894,5.6989,5.7,5.7144,5.7169,5.7182,5.7184,5.7184,5.7182,5.7219,5.7205,5.7185,5.7183,5.7182,5.718,0,5.629,5.6314,5.6473,5.6544,5.6564,5.6668,5.6728,5.6815,5.6839,5.6962,5.6992,5.703,5.714,5.7161,5.7292,5.7299,5.747,5.7458,5.7444,5.7443,5.7545,5.7534,5.7878,5.7922,5.7636,5.7639,5.7641,0,5.6439,5.6539,5.662,5.6683,5.6726,5.6828,5.6892,5.6901,5.6968,5.7059,5.7135,5.7243,5.7329,5.7507,5.7546,5.7645,5.7634,5.7748,5.7649,5.7646,5.7634,5.7627,5.7637,5.7766,5.7769,5.7772,5.7774,0,5.6701,5.6707,5.68,5.6897,5.6973,5.705,5.7122,5.7175,5.7194,5.727,5.7382,5.7449,5.7582,5.7688,5.7787,5.7828,5.7804,5.7805,5.7834,5.7834,5.7822,5.7828,5.7494,5.7797,5.7794,5.7793,5.7791,5.7791,5.6886,5.6973,5.7042,5.7146,5.7201,5.7269,5.7354,5.7388,5.7482,5.7589,5.7589,5.7711,5.7782,5.7912,5.7959,5.8054,5.8018,5.8061,5.8072,5.8082,5.809,5.7808,5.8073,5.8072,5.8071,5.8071,5.8071,0,5.7145,5.7188,5.7283,5.7385,5.7466,5.7436,5.7515,5.7584,5.7692,5.7759,5.7844,5.7972,5.8075,5.8122,5.8223,5.8291,5.8282,5.8317,5.8311,5.8321,5.8117,5.8081,5.8322,5.8322,5.8322,5.8322,5.8322,5.8322,5.7289,5.7433,5.7448,5.7618,5.766,5.7779,5.7826,5.7889,5.7942,5.8086,5.8171,5.82,5.8259,5.8365,5.8457,5.8468,5.8506,5.8546,5.8552,5.8361,5.8335,5.8311,5.8277,5.8554,5.8555,5.8747,5.8748,5.875]},{"header":{"parameterUnit":"m.s-1","parameterCategory":1,"la1":30.2991,"la2":30.254,"lo1":-89.0895,"lo2":-89.0444,"dy":0.0017,"dx":0.0017,"nx":28,"ny":28,"refTime":"2023-08-10T09:00:00:Z","depth":0,"parameterNumber":3,"parameterNumberName":"V-component_of_WINDS"},"data":[0,0,0,0,0,0,0,0,0,0,0,0,0,0,0,0,0,0,0,0,0,0,0,0,0,0,0,0,0,0,0,0,0,0,0,0,0,0,0,0,0,0,0,0,0,0,0,0,0,0,0,0,0,0,0,0,0,0,0.6714,0.6714,0,0.6738,0.6738,0.6738,0.6716,0.6715,0.6714,0.6713,0.6739,0.6741,0.6742,0,0,0,0,0,0,0,0,0,0,0,0,0,0.665,0.6651,0.6714,0.6714,0.6715,0.6738,0.6738,0.6738,0.6716,0.6715,0.6714,0.6713,0.6739,0.6741,0.6743,0,0,0,0,0,0,0,0,0,0,0,0,0,0.6676,0.6652,0.6714,0.6706,0.6706,0.6738,0.6738,0.6739,0.6716,0.6715,0.6714,0.6712,0.6738,0.6741,0.6743,0.6784,0,0,0.675,0.6751,0,0,0,0,0,0,0,0,0.6675,0.6679,0.6707,0.6707,0.6706,0.6722,0.6725,0.6754,0.6717,0.6712,0.6713,0.6712,0.6735,0.6737,0.6745,0.6786,0.6787,0.675,0.6752,0.6752,0.6753,0,0,0,0,0,0,0,0.6673,0.6678,0.6724,0.6708,0.6707,0.6702,0.6704,0.6731,0.6731,0.6713,0.6711,0.6714,0.6735,0.6743,0.6745,0.6787,0.675,0.6752,0.6754,0.6754,0.6862,0.6863,0,0,0,0,0,0,0.6672,0.6676,0.6723,0.6724,0.6687,0.6704,0.6707,0.6719,0.6731,0.6731,0.6715,0.6713,0.674,0.6743,0.6746,0.6795,0.6752,0.6755,0.6756,0.686,0.6862,0.6863,0,0,0,0,0,0,0.6671,0.6676,0.6722,0.67,0.6705,0.6707,0.672,0.672,0.6728,0.6733,0.6733,0.6723,0.6739,0.6743,0.6775,0.6796,0.6756,0.6758,0.6858,0.6861,0.6863,0.6894,0,0,0,0,0,0,0.6669,0.6676,0.6692,0.67,0.6706,0.675,0.6722,0.6721,0.6732,0.6729,0.674,0.6741,0.6738,0.6771,0.6777,0.6798,0.676,0.6857,0.6859,0.6862,0.6891,0.6897,0.6902,0,0,0,0,0,0.6667,0.67,0.6693,0.6699,0.6726,0.6751,0.6755,0.675,0.6734,0.675,0.6752,0.6741,0.6792,0.6775,0.6781,0.6803,0.6855,0.6859,0.6862,0.6888,0.6895,0.6901,0,0,0,0,0,0,0.6695,0.6701,0.6693,0.673,0.674,0.6747,0.6767,0.6758,0.6773,0.677,0.6764,0.6766,0.68,0.6804,0.6785,0.6843,0.6821,0.6826,0.6839,0.6846,0.6851,0.685,0.6762,0,0,0,0,0,0.6706,0.6725,0.6729,0.6762,0.6767,0.6766,0.6777,0.6772,0.6782,0.6787,0.6792,0.6803,0.6821,0.6834,0.6851,0.6891,0.6893,0.6909,0.6914,0.6919,0.6923,0.6944,0.6951,0.6874,0.6874,0.6874,0,0,0.6728,0.6733,0.6746,0.6767,0.6775,0.6795,0.677,0.6793,0.6808,0.679,0.682,0.6824,0.6836,0.6871,0.6887,0.6877,0.6945,0.6923,0.6927,0.6929,0.6948,0.6955,0.6962,0.6876,0.6876,0.6876,0,0,0.6779,0.6785,0.6812,0.6819,0.683,0.6829,0.6835,0.6844,0.6845,0.6875,0.6862,0.6879,0.6912,0.692,0.6929,0.6981,0.6971,0.6987,0.7016,0.7036,0.7042,0.7047,0.7066,0.7072,0.6991,0.6991,0.6991,0,0.6805,0.6835,0.6828,0.6851,0.686,0.6844,0.6872,0.6879,0.6895,0.6902,0.689,0.6929,0.6936,0.6973,0.6985,0.6992,0.7,0.6986,0.7041,0.7047,0.7052,0.7069,0.7076,0.6993,0.6993,0.6992,0.6992,0,0.6867,0.6888,0.6908,0.6923,0.6935,0.696,0.6957,0.697,0.6963,0.6963,0.6993,0.7,0.7019,0.7027,0.7021,0.7063,0.7056,0.7042,0.702,0.7061,0.7077,0.7084,0.6996,0.6995,0.6994,0.6994,0,0,0.6938,0.6947,0.6955,0.6961,0.6971,0.6987,0.7011,0.7028,0.7039,0.705,0.707,0.7097,0.7084,0.7094,0.7089,0.7106,0.7146,0.7091,0.7091,0.7101,0.7192,0.7203,0.7211,0.7139,0.714,0.7141,0.7191,0,0.6989,0.7031,0.7024,0.7065,0.7083,0.7067,0.7088,0.7096,0.7097,0.7113,0.7113,0.7132,0.7114,0.712,0.7136,0.7138,0.7165,0.7134,0.7158,0.7159,0.7157,0.7219,0.7231,0.7277,0.7198,0.7199,0.72,0,0.7055,0.7067,0.7109,0.7115,0.7123,0.7142,0.7156,0.7171,0.718,0.7179,0.7189,0.718,0.7204,0.7181,0.7214,0.7193,0.7202,0.7204,0.7206,0.7209,0.7183,0.7224,0.7292,0.7299,0.721,0.7209,0.7208,0,0.7103,0.713,0.7158,0.7164,0.7171,0.7185,0.7189,0.7196,0.7206,0.7218,0.7225,0.724,0.7248,0.726,0.7256,0.7239,0.729,0.7266,0.729,0.729,0.7302,0.7302,0.7373,0.7307,0.7307,0.7307,0.7307,0,0.7161,0.7187,0.718,0.7197,0.7226,0.7218,0.7247,0.7248,0.7254,0.7272,0.7259,0.7276,0.7269,0.7285,0.7282,0.7309,0.7313,0.7313,0.7312,0.7315,0.7315,0.7321,0.7318,0.7309,0.7308,0.7308,0.7308,0,0.722,0.7215,0.7245,0.7249,0.7251,0.7272,0.7275,0.7291,0.729,0.7312,0.7317,0.7315,0.7334,0.733,0.7351,0.7348,0.7383,0.7378,0.738,0.7379,0.7403,0.7401,0.7482,0.7492,0.7419,0.742,0.742,0,0.7257,0.7277,0.7282,0.7293,0.7297,0.7315,0.7324,0.7316,0.7327,0.7338,0.7353,0.737,0.7383,0.7413,0.7414,0.7429,0.7424,0.7451,0.7426,0.7428,0.7425,0.7424,0.7426,0.7457,0.7458,0.7458,0.7459,0,0.7325,0.7321,0.7336,0.7349,0.7361,0.7371,0.738,0.739,0.7382,0.7395,0.7413,0.7423,0.7443,0.746,0.7474,0.7478,0.7468,0.7466,0.7473,0.7476,0.7476,0.7476,0.7394,0.7465,0.7464,0.7464,0.7463,0.7463,0.7374,0.7391,0.7397,0.7413,0.7419,0.7427,0.7442,0.7442,0.7457,0.7472,0.7467,0.7487,0.7494,0.7511,0.7517,0.7533,0.7523,0.7532,0.7534,0.7537,0.754,0.7473,0.7535,0.7535,0.7535,0.7535,0.7535,0,0.7441,0.7444,0.7459,0.7471,0.7484,0.7471,0.748,0.7492,0.751,0.7517,0.753,0.755,0.7566,0.7567,0.7582,0.7594,0.759,0.7599,0.7598,0.7599,0.7548,0.7541,0.7602,0.7602,0.7602,0.7602,0.7602,0.7602,0.7477,0.7504,0.7501,0.7531,0.7533,0.7553,0.7559,0.7567,0.7572,0.7595,0.7608,0.7608,0.7613,0.7628,0.7642,0.7641,0.7648,0.7659,0.7657,0.7609,0.7603,0.7596,0.759,0.766,0.766,0.7706,0.7707,0.7707]}]]